Location: Cañada de la Miga
(34.7595°N, 106.2317°W)
Time: 23:31:25
(UTC+00:00)

SR - Pass Details

Date: 08 December 2021
Orbit: 582 x 872 km, 66.7° (Epoch: 28 January)

Event Time Altitude Azimuth Distance (km) Brightness Sun altitude
Rises 13:16:07 0° 353° (N) 2,836 ? -9.1°
Reaches altitude 10° 13:19:20 10° 19° (NNE) 1,964 ? -8.4°
Maximum altitude 13:21:42 14° 52° (NE) 1,733 ? -8.0°
Drops below altitude 10° 13:24:08 10° 85° (E) 2,029 ? -7.5°
Sets 13:27:32 0° 110° (ESE) 2,997 ? -6.9°
